QPF
0.00 0.00 0.00 0.00 0.00 0.00 0.00 0.00 0.00 0.00 0.00 0.00 0.00 0.00 0.00 0.00 0.00 0.00 0.00 0.00 0.00 0.00 0.00 0.01 0.07 0.00 0.00 0.00 0.00 0.00 0.00 0.00 0.00 0.00 0.00 0.01 0.01 0.00 0.01 0.00 0.00 0.00 0.00 0.00 0.00 0.00 0.00 0.00 0.00
0.00 0.00 0.00 0.00 0.00 0.00 0.00 0.00 0.00 0.00 0.00 0.00 0.00 0.00 0.00 0.00 0.00 0.00 0.00 0.00 0.00 0.00 0.00 0.00 0.02 0.00 0.00 0.00 0.00 0.00 0.00 0.00 0.00 0.00 0.00 0.00 0.00 0.00 0.00 0.00 0.00 0.00 0.00 0.00 0.00 0.00 0.00 0.00 0.00
0.00 0.00 0.00 0.00 0.00 0.00 0.00 0.00 0.00 0.00 0.00 0.00 0.00 0.00 0.00 0.00 0.00 0.00 0.00 0.00 0.00 0.00 0.00 0.00 0.00 0.00 0.00 0.00 0.01 0.00 0.00 0.00 0.00 0.00 0.00 0.00 0.00 0.00 0.00 0.00 0.00 0.00 0.00 0.00 0.00 0.00 0.00 0.00 0.00
0.00 0.00 0.00 0.00 0.00 0.00 0.00 0.00 0.00 0.00 0.00 0.00 0.00 0.00 0.00 0.00 0.00 0.00 0.00 0.00 0.00 0.00 0.00 0.00 0.00 0.00 0.00 0.00 0.00 0.00 0.00 0.00 0.00 0.00 0.00 0.00 0.00 0.00 0.00 0.00 0.00 0.00 0.00 0.00 0.00 0.00 0.00 0.00 0.00
0.00 0.00 0.00 0.00 0.00 0.00 0.00 0.00 0.00 0.00 0.00 0.00 0.00 0.00 0.00 0.00 0.00 0.00 0.00 0.00 0.00 0.01 0.00 0.00 0.00 0.00 0.00 0.00 0.00 0.00 0.01 0.01 0.00 0.01 0.00 0.00 0.00 0.00 0.00 0.00 0.00 0.00 0.00 0.00 0.00 0.00 0.00 0.00 0.00
0.00 0.00 0.00 0.00 0.00 0.00 0.00 0.00 0.00 0.00 0.00 0.00 0.00 0.00 0.00 0.00 0.00 0.00 0.00 0.00 0.00 0.01 0.01 0.01 0.00 0.00 0.00 0.00 0.00 0.00 0.01 0.02 0.03 0.03 0.04 0.02 0.01 0.00 0.00 0.00 0.00 0.00 0.00 0.00 0.00 0.00 0.00 0.00 0.00
0.00 0.00 0.00 0.00 0.00 0.00 0.00 0.00 0.00 0.00 0.00 0.00 0.00 0.00 0.00 0.00 0.00 0.00 0.00 0.00 0.00 0.00 0.00 0.00 0.01 0.00 0.00 0.00 0.00 0.00 0.00 0.00 0.00 0.00 0.01 0.00 0.01 0.01 0.00 0.00 0.00 0.00 0.00 0.00 0.00 0.00 0.00 0.00 0.00
0.00 0.00 0.00 0.00 0.00 0.00 0.00 0.00 0.00 0.00 0.00 0.00 0.00 0.00 0.00 0.00 0.00 0.00 0.00 0.00 0.00 0.00 0.00 0.00 0.00 0.00 0.00 0.00 0.00 0.00 0.00 0.00 0.00 0.00 0.00 0.00 0.00 0.00 0.00 0.00 0.00 0.00 0.00 0.00 0.00 0.00 0.00 0.00 0.00
0.00 0.00 0.00 0.00 0.00 0.00 0.00 0.00 0.00 0.00 0.00 0.00 0.00 0.00 0.00 0.00 0.00 0.00 0.00 0.00 0.00 0.00 0.00 0.00 0.00 0.00 0.00 0.00 0.00 0.00 0.00 0.00 0.00 0.00 0.00 0.00 0.00 0.00 0.00 0.00 0.00 0.00 0.00 0.00 0.00 0.00 0.00 0.00 0.00
0.00 0.00 0.00 0.00 0.00 0.00 0.00 0.00 0.00 0.00 0.00 0.00 0.00 0.00 0.00 0.00 0.00 0.00 0.00 0.00 0.00 0.00 0.00 0.00 0.00 0.00 0.00 0.00 0.00 0.00 0.01 0.00 0.00 0.00 0.00 0.00 0.00 0.00 0.00 0.00 0.00 0.00 0.00 0.00 0.00 0.00 0.00 0.00 0.00
0.00 0.00 0.00 0.00 0.00 0.00 0.00 0.00 0.00 0.00 0.00 0.00 0.00 0.00 0.00 0.00 0.00 0.00 0.00 0.00 0.00 0.00 0.00 0.00 0.00 0.00 0.00 0.00 0.00 0.00 0.00 0.00 0.00 0.00 0.00 0.01 0.00 0.00 0.00 0.00 0.00 0.00 0.00 0.00 0.00 0.00 0.00 0.00 0.00
0.00 0.00 0.00 0.00 0.00 0.00 0.00 0.00 0.00 0.00 0.00 0.00 0.00 0.00 0.00 0.00 0.00 0.00 0.00 0.00 0.00 0.00 0.00 0.00 0.00 0.00 0.00 0.00 0.00 0.00 0.00 0.00 0.00 0.00 0.00 0.00 0.00 0.00 0.00 0.00 0.00 0.00 0.00 0.00 0.00 0.00 0.00 0.00 0.00
0.00 0.00 0.00 0.00 0.00 0.00 0.00 0.00 0.00 0.00 0.00 0.00 0.00 0.00 0.00 0.00 0.00 0.00 0.00 0.00 0.00 0.00 0.00 0.00 0.00 0.00 0.00 0.00 0.00 0.00 0.00 0.00 0.00 0.00 0.00 0.00 0.00 0.00 0.00 0.00 0.00 0.00 0.00 0.00 0.00 0.00 0.00 0.00 0.00
0.00 0.00 0.00 0.00 0.00 0.00 0.00 0.00 0.00 0.00 0.00 0.00 0.00 0.00 0.00 0.00 0.00 0.00 0.00 0.00 0.00 0.00 0.00 0.00 0.00 0.00 0.00 0.00 0.00 0.00 0.00 0.00 0.00 0.00 0.00 0.00 0.00 0.00 0.00 0.00 0.00 0.00 0.00 0.00 0.00 0.00 0.00 0.00 0.00
0.00 0.00 0.00 0.00 0.00 0.00 0.00 0.00 0.00 0.00 0.00 0.00 0.00 0.00 0.00 0.00 0.00 0.00 0.00 0.00 0.00 0.00 0.00 0.00 0.00 0.00 0.00 0.00 0.00 0.00 0.00 0.00 0.00 0.00 0.00 0.00 0.00 0.00 0.00 0.00 0.00 0.00 0.00 0.00 0.00 0.00 0.00 0.00 0.00
0.00 0.00 0.00 0.00 0.00 0.00 0.00 0.00 0.00 0.00 0.00 0.00 0.00 0.00 0.00 0.00 0.00 0.00 0.00 0.00 0.00 0.00 0.00 0.00 0.00 0.00 0.00 0.00 0.00 0.00 0.00 0.00 0.00 0.00 0.00 0.00 0.00 0.00 0.00 0.00 0.00 0.00 0.00 0.00 0.00 0.00 0.00 0.00 0.00
0.00 0.00 0.00 0.00 0.00 0.00 0.00 0.00 0.00 0.00 0.00 0.00 0.00 0.00 0.00 0.00 0.00 0.00 0.00 0.00 0.00 0.00 0.00 0.00 0.00 0.00 0.00 0.00 0.00 0.00 0.00 0.00 0.00 0.00 0.00 0.00 0.00 0.00 0.00 0.00 0.00 0.00 0.00 0.00 0.00 0.00 0.00 0.00 0.00
0.00 0.00 0.00 0.00 0.00 0.00 0.00 0.00 0.00 0.00 0.00 0.00 0.00 0.00 0.00 0.00 0.00 0.00 0.00 0.00 0.00 0.00 0.00 0.00 0.00 0.00 0.00 0.00 0.00 0.00 0.00 0.00 0.00 0.00 0.00 0.00 0.00 0.00 0.00 0.00 0.00 0.00 0.00 0.00 0.00 0.00 0.00 0.00 0.00
0.00 0.00 0.00 0.00 0.00 0.00 0.00 0.00 0.00 0.00 0.00 0.00 0.00 0.00 0.00 0.00 0.00 0.00 0.00 0.00 0.00 0.00 0.00 0.00 0.00 0.00 0.00 0.00 0.00 0.00 0.00 0.00 0.00 0.00 0.00 0.00 0.00 0.00 0.00 0.00 0.00 0.00 0.00 0.00 0.00 0.00 0.00 0.00 0.00
0.00 0.00 0.00 0.00 0.00 0.00 0.00 0.00 0.00 0.00 0.00 0.00 0.00 0.00 0.00 0.00 0.00 0.00 0.00 0.00 0.00 0.00 0.00 0.00 0.00 0.00 0.00 0.00 0.00 0.00 0.00 0.00 0.00 0.00 0.00 0.00 0.00 0.00 0.00 0.00 0.00 0.00 0.00 0.00 0.00 0.00 0.00 0.00 0.00
0.00 0.00 0.00 0.00 0.00 0.00 0.00 0.00 0.00 0.00 0.00 0.00 0.00 0.00 0.00 0.00 0.00 0.00 0.00 0.00 0.00 0.00 0.00 0.00 0.00 0.00 0.00 0.00 0.00 0.00 0.00 0.00 0.00 0.00 0.00 0.00 0.00 0.00 0.00 0.00 0.00 0.00 0.00 0.00 0.00 0.00 0.00 0.00 0.00
0.00 0.00 0.00 0.00 0.00 0.00 0.00 0.00 0.00 0.00 0.00 0.00 0.00 0.00 0.00 0.00 0.00 0.00 0.00 0.00 0.00 0.00 0.00 0.00 0.00 0.00 0.00 0.00 0.00 0.00 0.00 0.00 0.00 0.00 0.00 0.00 0.00 0.00 0.00 0.00 0.00 0.00 0.00 0.00 0.00 0.00 0.00 0.00 0.00
0.00 0.00 0.00 0.00 0.00 0.00 0.00 0.00 0.00 0.00 0.00 0.00 0.00 0.00 0.00 0.00 0.00 0.00 0.00 0.00 0.00 0.00 0.00 0.00 0.00 0.00 0.00 0.00 0.00 0.00 0.00 0.00 0.00 0.00 0.00 0.00 0.00 0.00 0.00 0.00 0.00 0.00 0.00 0.00 0.00 0.00 0.00 0.00 0.00
0.00 0.00 0.00 0.00 0.00 0.00 0.00 0.00 0.00 0.00 0.00 0.00 0.00 0.00 0.00 0.00 0.00 0.00 0.00 0.00 0.00 0.00 0.00 0.00 0.00 0.00 0.00 0.00 0.00 0.00 0.00 0.00 0.00 0.00 0.00 0.00 0.00 0.00 0.00 0.00 0.00 0.00 0.00 0.00 0.00 0.00 0.00 0.00 0.00
0.00 0.00 0.00 0.00 0.00 0.00 0.00 0.00 0.00 0.00 0.00 0.00 0.00 0.00 0.00 0.00 0.00 0.00 0.00 0.00 0.00 0.00 0.00 0.00 0.00 0.00 0.00 0.00 0.00 0.00 0.00 0.00 0.00 0.00 0.00 0.00 0.00 0.00 0.00 0.00 0.00 0.00 0.00 0.00 0.00 0.00 0.00 0.00 0.00
0.00 0.00 0.00 0.00 0.00 0.00 0.00 0.00 0.00 0.00 0.00 0.00 0.00 0.00 0.00 0.00 0.00 0.00 0.00 0.00 0.00 0.00 0.00 0.00 0.00 0.00 0.00 0.00 0.00 0.00 0.00 0.00 0.00 0.00 0.00 0.00 0.00 0.00 0.00 0.00 0.00 0.00 0.00 0.00 0.00 0.00 0.00 0.00 0.00
0.00 0.00 0.00 0.00 0.00 0.00 0.00 0.00 0.00 0.00 0.00 0.00 0.00 0.00 0.00 0.00 0.00 0.00 0.00 0.00 0.00 0.00 0.00 0.00 0.00 0.00 0.00 0.00 0.00 0.00 0.00 0.00 0.00 0.00 0.00 0.00 0.00 0.00 0.00 0.00 0.00 0.00 0.00 0.00 0.00 0.00 0.00 0.00 0.00
0.00 0.00 0.00 0.00 0.00 0.00 0.00 0.00 0.00 0.00 0.00 0.00 0.00 0.00 0.00 0.00 0.00 0.00 0.00 0.00 0.00 0.00 0.00 0.00 0.00 0.00 0.00 0.00 0.00 0.00 0.00 0.00 0.00 0.00 0.00 0.00 0.00 0.00 0.00 0.00 0.00 0.00 0.00 0.00 0.00 0.00 0.00 0.00 0.00
0.00 0.00 0.00 0.00 0.00 0.00 0.00 0.00 0.00 0.00 0.00 0.00 0.00 0.00 0.00 0.00 0.00 0.00 0.00 0.00 0.00 0.00 0.00 0.00 0.00 0.00 0.00 0.00 0.00 0.00 0.00 0.00 0.00 0.00 0.00 0.00 0.00 0.00 0.00 0.00 0.00 0.00 0.00 0.00 0.00 0.00 0.00 0.00 0.00
0.00 0.00 0.00 0.00 0.00 0.00 0.00 0.00 0.00 0.00 0.00 0.00 0.00 0.00 0.00 0.00 0.00 0.00 0.00 0.00 0.00 0.00 0.00 0.00 0.00 0.00 0.00 0.00 0.00 0.00 0.00 0.00 0.00 0.00 0.00 0.00 0.00 0.00 0.00 0.00 0.00 0.00 0.00 0.00 0.00 0.00 0.00 0.00 0.00
MSLP
1013.51 1013.30 1013.46 1014.08 1016.40 1017.87 1018.49 1018.23 1017.55 1017.34 1017.26 1017.35 1017.28 1017.75 1018.95 1019.51 1019.80 1020.39 1019.61 1019.52 1019.47 1019.90 1020.28 1020.48 1020.75 1020.91 1021.15 1021.26 1021.36 1021.45 1021.46 1021.57 1021.76 1021.69 1021.87 1022.04 1022.03 1022.11 1022.27 1022.59 1022.61 1022.58 1022.70 1022.63 1022.45 1022.42 1022.37 1022.25 1022.15
1013.61 1013.38 1014.05 1015.45 1017.33 1018.85 1019.15 1018.17 1017.58 1017.32 1017.41 1017.56 1017.73 1018.36 1019.05 1019.99 1019.71 1019.77 1019.84 1019.76 1019.55 1019.91 1020.30 1020.53 1020.72 1020.98 1021.19 1021.41 1021.55 1021.64 1021.66 1021.82 1021.85 1022.00 1022.20 1022.36 1022.34 1022.56 1022.76 1022.74 1023.02 1023.06 1023.10 1022.97 1022.96 1022.96 1022.90 1022.79 1022.65
1013.52 1013.75 1015.23 1016.49 1018.25 1018.83 1018.59 1018.23 1017.49 1017.48 1017.34 1017.42 1018.24 1018.89 1019.60 1020.17 1019.92 1019.70 1019.51 1019.67 1019.90 1020.21 1020.40 1020.63 1020.85 1021.09 1021.31 1021.46 1021.58 1021.77 1021.99 1022.09 1022.22 1022.28 1022.48 1022.58 1022.73 1022.98 1023.15 1023.20 1023.51 1023.40 1023.37 1023.38 1023.52 1023.40 1023.39 1023.31 1023.17
1013.85 1014.65 1016.40 1017.17 1018.07 1018.04 1017.82 1017.72 1017.23 1017.22 1017.32 1017.52 1018.38 1019.65 1019.95 1020.18 1020.00 1019.74 1019.50 1019.55 1020.06 1020.34 1020.52 1020.77 1020.99 1021.22 1021.43 1021.64 1021.87 1022.02 1022.14 1022.24 1022.35 1022.53 1022.66 1022.81 1023.07 1023.35 1023.51 1023.72 1023.72 1023.68 1023.65 1023.74 1023.76 1023.75 1023.72 1023.68 1023.59
1014.60 1015.94 1017.34 1018.08 1017.79 1017.55 1017.36 1017.23 1017.13 1017.35 1017.52 1017.93 1018.40 1020.01 1020.44 1020.51 1020.37 1020.12 1019.94 1019.90 1020.28 1020.52 1020.68 1020.92 1021.06 1021.30 1021.50 1021.67 1021.85 1022.07 1022.27 1022.47 1022.64 1022.83 1022.99 1023.12 1023.36 1023.58 1023.76 1023.89 1023.95 1023.80 1023.91 1023.98 1024.08 1024.08 1024.01 1024.00 1023.96
1015.84 1016.82 1018.16 1018.51 1017.99 1017.39 1017.05 1016.88 1017.08 1017.38 1017.74 1018.33 1019.06 1020.15 1020.91 1020.91 1020.66 1020.87 1020.55 1020.63 1020.39 1020.54 1020.69 1020.95 1021.18 1021.33 1021.52 1021.74 1021.97 1022.21 1022.37 1022.63 1022.77 1022.91 1023.14 1023.27 1023.39 1023.59 1023.70 1023.84 1023.87 1023.89 1023.93 1024.04 1024.24 1024.28 1024.30 1024.20 1024.24
1016.38 1017.70 1018.41 1018.26 1017.96 1017.32 1016.63 1016.37 1016.89 1017.32 1017.76 1018.28 1018.88 1020.57 1021.24 1021.31 1021.23 1021.21 1021.13 1021.06 1021.08 1021.09 1021.12 1021.23 1021.39 1021.65 1021.77 1021.94 1022.05 1022.17 1022.30 1022.45 1022.57 1022.72 1022.88 1023.12 1023.29 1023.55 1023.77 1023.93 1023.99 1023.96 1024.09 1024.26 1024.55 1024.55 1024.54 1024.46 1024.54
1016.52 1017.80 1018.45 1018.16 1017.93 1017.16 1016.43 1016.36 1016.72 1017.17 1017.88 1018.29 1018.91 1020.32 1021.36 1021.10 1021.32 1021.36 1021.60 1021.75 1021.80 1021.76 1021.73 1021.74 1021.59 1021.63 1021.75 1021.95 1022.07 1022.07 1022.14 1022.30 1022.42 1022.60 1022.88 1023.19 1023.44 1023.64 1023.76 1023.96 1024.18 1024.18 1024.22 1024.43 1024.53 1024.56 1024.61 1024.58 1024.67
1016.43 1018.03 1018.45 1017.91 1017.70 1016.84 1016.48 1016.62 1016.82 1017.09 1017.88 1019.02 1019.64 1019.96 1020.09 1020.71 1021.39 1021.67 1022.03 1022.18 1022.23 1022.22 1022.13 1022.06 1021.93 1021.78 1021.61 1021.67 1022.05 1022.20 1022.29 1022.39 1022.56 1022.81 1023.08 1023.32 1023.52 1023.70 1023.93 1024.24 1024.52 1024.63 1024.66 1024.20 1024.50 1024.70 1024.93 1025.06 1025.21
1016.98 1018.17 1017.72 1017.28 1017.03 1016.75 1016.49 1016.54 1016.87 1017.43 1018.38 1019.49 1020.13 1020.38 1020.56 1020.96 1021.58 1022.04 1022.40 1022.54 1022.59 1022.60 1022.50 1022.38 1022.21 1022.11 1022.01 1021.73 1021.75 1021.86 1021.94 1022.29 1022.50 1022.71 1023.04 1023.26 1023.54 1023.86 1024.12 1024.40 1024.69 1025.00 1025.32 1025.21 1025.00 1025.13 1025.20 1025.45 1025.76
1016.87 1017.33 1017.10 1016.97 1016.72 1016.56 1016.66 1016.72 1016.88 1017.55 1018.62 1019.00 1019.80 1020.50 1020.87 1021.33 1021.84 1022.25 1022.56 1022.56 1022.56 1022.64 1022.73 1022.69 1022.59 1022.45 1022.29 1022.20 1022.02 1021.91 1021.97 1022.31 1022.48 1022.62 1022.85 1023.13 1023.52 1023.97 1024.38 1024.78 1025.08 1025.43 1025.72 1025.88 1025.87 1025.97 1026.20 1026.30 1026.40
1016.67 1016.81 1016.81 1016.87 1016.72 1016.67 1016.82 1016.84 1017.23 1017.75 1018.02 1018.31 1019.03 1020.03 1020.82 1021.46 1021.89 1022.22 1022.51 1022.67 1022.76 1022.86 1022.92 1022.91 1022.80 1022.59 1022.42 1022.33 1022.23 1022.12 1022.34 1022.64 1022.83 1022.87 1022.85 1023.06 1023.59 1024.16 1024.51 1024.91 1025.15 1025.35 1025.82 1026.17 1026.33 1026.49 1026.70 1026.80 1026.80
1016.68 1016.81 1016.73 1016.78 1016.86 1016.89 1016.97 1017.22 1017.58 1018.04 1018.46 1018.88 1019.48 1020.41 1021.16 1021.66 1022.04 1022.35 1022.43 1022.65 1022.82 1022.96 1023.00 1022.98 1022.85 1022.67 1022.51 1022.52 1022.51 1022.75 1023.06 1023.14 1023.28 1023.29 1023.30 1023.28 1023.67 1024.23 1024.69 1025.09 1025.45 1025.85 1026.01 1026.31 1026.69 1026.83 1026.98 1027.16 1027.24
1016.95 1017.06 1017.01 1016.96 1017.10 1017.13 1017.40 1017.69 1018.00 1018.25 1018.97 1019.69 1020.21 1020.80 1021.36 1021.67 1021.96 1022.40 1022.58 1022.66 1022.82 1022.97 1023.03 1023.07 1022.98 1022.78 1022.49 1022.56 1022.85 1023.16 1023.37 1023.54 1023.55 1023.75 1023.75 1023.91 1024.18 1024.53 1024.94 1025.36 1025.71 1026.00 1026.34 1026.49 1026.60 1026.78 1027.08 1027.18 1027.49
1017.30 1017.59 1017.49 1017.16 1017.32 1017.45 1017.65 1018.23 1018.07 1018.48 1019.39 1020.15 1020.76 1021.14 1021.61 1021.80 1021.98 1022.05 1022.19 1022.44 1022.64 1022.95 1023.06 1023.05 1023.00 1023.01 1022.89 1022.89 1023.16 1023.48 1023.71 1023.85 1023.96 1024.22 1024.27 1024.43 1024.68 1024.97 1025.37 1025.81 1026.27 1026.44 1026.59 1026.81 1026.83 1027.20 1027.34 1027.52 1027.70
1018.09 1018.30 1018.32 1017.38 1017.46 1017.64 1018.10 1018.06 1017.87 1018.61 1019.52 1020.40 1020.95 1021.42 1021.67 1021.76 1021.70 1021.96 1022.10 1022.35 1022.62 1022.84 1023.06 1023.03 1022.84 1023.20 1023.26 1023.04 1023.40 1023.74 1023.98 1024.02 1024.27 1024.50 1024.69 1024.89 1025.19 1025.50 1025.85 1026.22 1026.69 1026.82 1026.92 1027.25 1027.54 1027.73 1028.24 1028.73 1028.79
1019.24 1019.13 1018.94 1018.15 1017.78 1017.97 1018.38 1018.30 1018.00 1018.67 1019.45 1020.27 1020.77 1021.27 1021.43 1021.67 1021.78 1021.82 1021.97 1022.25 1022.53 1022.65 1022.86 1023.03 1023.12 1023.27 1023.38 1023.45 1023.70 1024.03 1024.25 1024.43 1024.73 1024.84 1025.12 1025.50 1025.68 1025.96 1026.36 1026.94 1027.32 1027.28 1027.54 1027.66 1027.92 1028.12 1028.45 1029.13 1029.45
1019.60 1019.61 1019.02 1018.64 1018.24 1018.41 1018.68 1018.35 1018.36 1018.83 1019.37 1019.55 1020.16 1020.61 1021.03 1021.20 1020.96 1021.41 1021.77 1022.15 1022.41 1022.56 1022.77 1022.91 1023.02 1023.20 1023.29 1023.54 1024.08 1024.51 1024.94 1025.15 1025.19 1025.26 1025.53 1025.92 1026.28 1026.59 1026.84 1027.25 1027.64 1027.60 1027.87 1028.20 1028.39 1028.80 1029.36 1029.76 1029.83
1019.02 1019.26 1019.01 1018.51 1018.06 1018.58 1018.45 1018.31 1018.02 1018.34 1018.99 1019.14 1019.50 1019.72 1020.06 1020.27 1020.75 1021.44 1021.79 1022.14 1022.49 1022.64 1022.79 1022.85 1022.92 1023.01 1023.19 1023.65 1024.17 1024.72 1025.28 1025.78 1025.75 1025.80 1025.73 1026.27 1026.79 1027.01 1027.22 1027.54 1027.84 1028.18 1028.28 1028.72 1028.75 1029.07 1029.56 1030.41 1030.56
1019.10 1019.28 1019.05 1018.64 1018.25 1018.72 1018.36 1018.25 1017.72 1017.70 1017.61 1017.43 1017.55 1018.11 1018.39 1019.51 1020.28 1020.98 1021.54 1021.94 1022.24 1022.41 1022.61 1022.74 1022.72 1022.86 1022.95 1023.23 1023.86 1024.51 1025.49 1026.36 1026.57 1026.75 1026.72 1026.56 1026.92 1027.40 1027.54 1027.87 1028.26 1028.48 1028.72 1029.01 1029.08 1029.15 1030.08 1031.03 1031.08
1018.97 1019.05 1018.96 1018.93 1018.66 1018.77 1018.82 1018.27 1017.59 1016.37 1016.16 1015.92 1015.88 1015.81 1016.54 1017.35 1018.68 1019.92 1020.73 1021.10 1021.67 1021.96 1022.19 1022.40 1022.57 1022.67 1022.87 1023.11 1023.84 1024.84 1025.72 1026.47 1027.01 1027.41 1027.58 1027.49 1027.29 1027.65 1027.94 1028.28 1028.51 1028.92 1029.00 1029.39 1029.72 1029.68 1029.91 1031.17 1031.71
1018.63 1018.20 1018.59 1019.00 1019.46 1019.49 1019.21 1017.88 1017.03 1016.20 1015.50 1015.16 1014.37 1014.89 1015.21 1016.32 1017.69 1018.98 1019.90 1020.62 1020.89 1021.27 1021.75 1022.01 1022.32 1022.61 1022.94 1023.14 1023.70 1024.20 1025.06 1026.31 1027.19 1027.63 1028.02 1027.92 1027.78 1028.19 1028.40 1028.58 1028.85 1029.18 1029.49 1029.77 1030.19 1030.10 1030.13 1030.59 1031.51
1018.06 1018.22 1018.84 1019.27 1019.87 1020.09 1019.80 1019.59 1016.04 1015.56 1015.19 1014.26 1013.23 1013.74 1014.31 1015.24 1016.12 1017.39 1018.28 1019.06 1020.04 1020.72 1021.18 1021.64 1022.09 1022.54 1022.90 1023.25 1023.69 1024.32 1025.34 1026.15 1027.09 1027.83 1028.28 1028.39 1028.61 1028.75 1028.93 1029.11 1029.47 1029.86 1030.10 1030.56 1030.79 1030.90 1031.04 1031.33 1031.90
1018.03 1018.81 1019.69 1020.47 1020.98 1020.64 1019.38 1019.35 1015.69 1015.01 1013.71 1013.04 1012.39 1012.91 1013.51 1014.43 1015.49 1016.57 1017.75 1018.78 1019.72 1020.42 1020.94 1021.35 1021.86 1022.42 1022.86 1023.28 1023.83 1024.35 1025.14 1026.10 1027.22 1028.04 1028.51 1028.83 1029.14 1029.31 1029.48 1029.64 1030.04 1030.46 1030.52 1031.05 1031.39 1031.64 1031.81 1032.11 1032.17
1018.23 1019.45 1020.83 1021.71 1021.94 1020.03 1018.96 1018.64 1014.53 1013.32 1012.61 1012.30 1012.11 1012.52 1013.32 1014.23 1015.32 1016.44 1017.42 1018.34 1019.25 1019.94 1020.48 1021.00 1021.41 1022.10 1022.69 1023.29 1023.79 1024.36 1024.96 1025.56 1026.39 1027.44 1028.20 1028.83 1029.24 1029.59 1029.91 1030.00 1030.53 1030.77 1030.99 1031.37 1031.77 1032.25 1032.66 1032.69 1032.75
1018.10 1018.58 1019.76 1020.67 1021.46 1020.50 1019.37 1016.86 1013.59 1012.28 1011.63 1012.10 1012.24 1012.45 1013.34 1014.65 1015.56 1016.35 1016.96 1017.81 1018.71 1019.51 1020.23 1020.71 1021.17 1021.78 1022.49 1023.21 1023.80 1024.33 1024.86 1025.55 1026.43 1027.21 1028.08 1028.59 1028.85 1029.22 1029.79 1030.34 1030.61 1031.01 1031.20 1031.64 1032.11 1032.67 1032.96 1032.97 1033.11
1017.89 1018.20 1018.52 1019.87 1021.40 1020.85 1017.92 1015.02 1013.25 1012.24 1011.92 1011.74 1011.90 1012.91 1013.99 1014.92 1015.41 1015.92 1016.83 1017.58 1018.46 1019.22 1019.75 1020.24 1020.78 1021.42 1022.18 1022.87 1023.60 1024.24 1024.85 1025.50 1026.29 1027.25 1028.11 1028.59 1028.96 1029.28 1029.98 1030.42 1030.78 1031.18 1031.44 1032.00 1032.41 1032.90 1033.19 1033.24 1033.48
1016.32 1016.88 1018.67 1020.00 1020.82 1019.83 1016.78 1015.01 1012.70 1011.96 1011.72 1011.42 1011.90 1012.45 1013.59 1014.68 1015.53 1016.12 1016.75 1017.34 1018.01 1018.84 1019.53 1020.15 1020.65 1021.11 1021.80 1022.54 1023.27 1023.95 1024.63 1025.36 1026.18 1027.10 1027.91 1028.49 1028.90 1029.31 1029.92 1030.39 1030.78 1031.25 1031.69 1032.18 1032.44 1032.96 1033.31 1033.43 1033.78
1016.49 1016.49 1017.17 1018.04 1018.78 1018.08 1016.36 1012.56 1010.51 1010.20 1010.30 1010.72 1011.10 1011.56 1012.87 1014.01 1014.99 1015.68 1016.50 1017.23 1017.97 1018.60 1019.28 1019.86 1020.37 1020.91 1021.63 1022.23 1022.93 1023.65 1024.37 1025.14 1026.08 1026.98 1027.72 1028.19 1028.70 1029.26 1029.78 1030.33 1030.84 1031.33 1031.87 1032.25 1032.69 1033.04 1033.28 1033.37 1033.53
1015.19 1015.27 1015.84 1016.54 1017.17 1016.52 1014.78 1009.36 1009.14 1009.17 1009.56 1010.17 1010.55 1011.13 1012.10 1013.17 1014.34 1015.24 1016.10 1016.98 1017.67 1018.32 1018.86 1019.39 1020.07 1020.60 1021.22 1021.97 1022.72 1023.42 1024.10 1024.88 1025.78 1026.59 1027.29 1027.97 1028.48 1029.12 1029.53 1030.05 1030.62 1031.36 1031.81 1032.05 1032.47 1032.86 1032.97 1033.16 1033.34
Thickness
5765 5767 5766 5752 5710 5690 5681 5695 5705 5704 5704 5713 5713 5705 5693 5691 5687 5670 5704 5707 5706 5702 5698 5696 5694 5693 5692 5692 5691 5691 5691 5691 5689 5691 5690 5689 5692 5692 5691 5689 5689 5690 5689 5690 5692 5693 5694 5695 5696
5766 5768 5757 5730 5691 5669 5673 5698 5702 5709 5710 5708 5710 5705 5696 5686 5699 5699 5701 5706 5707 5703 5700 5697 5696 5693 5692 5691 5690 5690 5690 5688 5689 5688 5687 5686 5688 5687 5686 5688 5685 5685 5685 5687 5687 5687 5687 5688 5689
5767 5765 5738 5709 5682 5675 5679 5699 5703 5712 5712 5717 5708 5704 5697 5692 5701 5703 5709 5707 5705 5702 5701 5699 5697 5695 5693 5692 5692 5691 5689 5688 5686 5686 5684 5684 5683 5682 5681 5682 5679 5681 5682 5682 5680 5682 5682 5682 5683
5761 5750 5729 5699 5700 5703 5700 5703 5710 5713 5719 5718 5706 5693 5700 5704 5705 5709 5710 5708 5704 5702 5700 5698 5696 5695 5693 5692 5690 5689 5688 5687 5686 5684 5683 5682 5680 5679 5678 5677 5677 5679 5679 5678 5678 5678 5679 5679 5679
5754 5733 5700 5694 5705 5710 5711 5710 5712 5713 5714 5713 5712 5691 5691 5702 5705 5707 5708 5707 5704 5701 5699 5697 5696 5695 5693 5692 5691 5689 5687 5686 5684 5682 5681 5680 5678 5677 5676 5676 5675 5678 5677 5676 5675 5675 5676 5676 5676
5731 5722 5688 5684 5698 5712 5717 5717 5715 5712 5712 5707 5699 5692 5690 5701 5702 5702 5705 5704 5704 5702 5700 5698 5696 5695 5694 5692 5690 5688 5687 5684 5683 5681 5679 5679 5678 5677 5677 5676 5676 5676 5675 5674 5671 5671 5671 5672 5671
5722 5706 5695 5695 5695 5707 5718 5727 5713 5710 5710 5710 5707 5688 5692 5697 5700 5700 5701 5701 5701 5699 5698 5696 5695 5693 5692 5691 5690 5689 5688 5686 5686 5684 5682 5681 5679 5677 5676 5675 5674 5674 5672 5670 5667 5668 5668 5669 5668
5721 5709 5705 5700 5693 5703 5721 5724 5718 5715 5711 5716 5712 5688 5685 5698 5700 5699 5698 5696 5696 5695 5695 5694 5694 5693 5692 5691 5690 5689 5687 5686 5686 5684 5682 5679 5677 5676 5675 5673 5672 5672 5672 5669 5667 5667 5666 5666 5665
5729 5693 5686 5704 5698 5711 5720 5717 5722 5723 5711 5705 5702 5702 5707 5702 5697 5695 5693 5692 5691 5691 5691 5692 5692 5693 5692 5692 5690 5688 5687 5685 5683 5681 5680 5679 5679 5677 5675 5672 5667 5666 5665 5669 5665 5663 5661 5660 5658
5710 5686 5704 5714 5713 5710 5716 5719 5716 5714 5705 5697 5696 5700 5701 5699 5694 5690 5688 5687 5687 5687 5688 5688 5689 5690 5690 5690 5690 5689 5688 5685 5684 5683 5681 5679 5676 5673 5669 5666 5663 5661 5658 5659 5659 5657 5658 5656 5652
5712 5695 5714 5715 5718 5718 5715 5716 5718 5704 5700 5701 5698 5697 5697 5695 5691 5687 5685 5685 5685 5685 5684 5685 5686 5687 5688 5687 5688 5687 5686 5685 5683 5681 5680 5678 5675 5671 5668 5665 5662 5658 5655 5653 5653 5651 5647 5646 5644
5710 5715 5716 5715 5716 5717 5711 5717 5713 5711 5712 5714 5707 5701 5695 5692 5688 5686 5683 5683 5682 5682 5682 5682 5682 5684 5684 5684 5684 5685 5683 5681 5680 5679 5678 5677 5673 5669 5666 5662 5659 5656 5651 5649 5646 5644 5640 5638 5636
5707 5710 5715 5713 5712 5712 5713 5709 5708 5708 5705 5703 5701 5696 5691 5688 5686 5684 5683 5681 5679 5679 5679 5679 5679 5681 5681 5680 5680 5678 5676 5674 5674 5674 5673 5672 5668 5664 5660 5657 5653 5649 5646 5643 5640 5638 5635 5632 5628
5705 5705 5707 5708 5707 5708 5703 5703 5705 5705 5697 5695 5694 5690 5686 5685 5683 5680 5679 5680 5679 5677 5676 5675 5676 5677 5678 5676 5674 5672 5671 5669 5669 5668 5667 5665 5662 5659 5655 5652 5648 5645 5640 5637 5635 5632 5628 5625 5621
5702 5694 5695 5699 5700 5699 5700 5691 5692 5699 5690 5689 5686 5683 5681 5681 5679 5680 5680 5679 5677 5674 5673 5672 5672 5672 5672 5672 5670 5668 5666 5665 5664 5662 5660 5658 5656 5653 5648 5643 5639 5636 5633 5629 5627 5622 5618 5615 5611
5688 5682 5673 5695 5692 5697 5692 5678 5700 5690 5685 5682 5680 5675 5675 5678 5679 5676 5676 5676 5673 5671 5670 5669 5669 5667 5667 5667 5665 5662 5660 5660 5658 5656 5654 5651 5648 5644 5640 5636 5630 5628 5625 5621 5618 5615 5608 5603 5600
5664 5659 5663 5676 5685 5686 5682 5683 5696 5683 5681 5679 5674 5671 5672 5672 5672 5672 5673 5671 5669 5669 5667 5665 5664 5663 5661 5660 5658 5656 5654 5652 5650 5649 5646 5642 5640 5636 5632 5626 5620 5619 5616 5614 5609 5608 5601 5593 5588
5651 5654 5661 5667 5680 5677 5672 5673 5683 5681 5677 5681 5674 5670 5669 5670 5675 5670 5669 5667 5665 5664 5663 5661 5660 5658 5656 5654 5650 5647 5643 5642 5641 5640 5637 5633 5630 5626 5623 5619 5614 5611 5607 5603 5600 5595 5588 5580 5576
5666 5658 5663 5670 5678 5669 5665 5670 5679 5677 5673 5675 5673 5672 5672 5674 5668 5664 5662 5660 5658 5658 5656 5655 5653 5653 5651 5647 5644 5640 5636 5631 5631 5630 5629 5625 5619 5617 5614 5611 5607 5602 5598 5591 5588 5583 5575 5565 5559
5658 5654 5649 5659 5667 5655 5663 5661 5672 5675 5677 5683 5686 5681 5682 5669 5662 5660 5656 5654 5653 5653 5651 5649 5649 5647 5646 5644 5639 5634 5627 5621 5619 5618 5617 5616 5612 5608 5606 5602 5597 5592 5586 5581 5576 5572 5561 5549 5544
5650 5644 5646 5649 5656 5652 5648 5644 5660 5682 5680 5686 5689 5697 5690 5685 5672 5661 5656 5654 5650 5648 5647 5645 5643 5642 5640 5637 5632 5624 5618 5612 5608 5606 5604 5603 5603 5598 5595 5590 5586 5580 5575 5568 5562 5557 5551 5536 5527
5639 5654 5653 5649 5639 5621 5641 5627 5653 5671 5677 5681 5694 5689 5693 5685 5673 5662 5655 5649 5649 5646 5642 5640 5637 5634 5631 5629 5625 5622 5615 5605 5598 5595 5592 5591 5591 5586 5582 5578 5573 5567 5561 5556 5548 5545 5539 5530 5519
5646 5651 5644 5640 5627 5622 5624 5604 5644 5666 5666 5683 5700 5693 5691 5683 5677 5667 5661 5656 5647 5642 5638 5634 5630 5626 5623 5621 5617 5612 5604 5598 5590 5584 5580 5579 5576 5572 5568 5563 5557 5551 5545 5538 5531 5526 5519 5512 5502
5640 5634 5622 5609 5604 5591 5629 5613 5629 5658 5679 5687 5696 5694 5688 5680 5675 5668 5657 5647 5640 5633 5630 5627 5622 5619 5616 5612 5607 5603 5596 5589 5580 5573 5569 5565 5561 5557 5552 5548 5541 5534 5529 5521 5514 5507 5501 5494 5486
5630 5618 5588 5580 5570 5598 5617 5604 5653 5671 5679 5687 5697 5693 5677 5672 5666 5657 5648 5642 5633 5628 5624 5620 5618 5613 5608 5602 5598 5593 5588 5584 5577 5568 5561 5555 5549 5543 5538 5533 5525 5519 5513 5506 5498 5489 5480 5474 5467
5613 5612 5588 5577 5576 5590 5598 5603 5645 5665 5684 5677 5678 5683 5668 5656 5652 5647 5644 5637 5630 5622 5616 5614 5610 5606 5599 5592 5588 5583 5579 5574 5566 5559 5551 5545 5540 5534 5526 5518 5512 5504 5498 5490 5480 5470 5464 5458 5450
5602 5599 5616 5593 5511 5547 5600 5628 5647 5653 5661 5668 5672 5666 5652 5646 5643 5639 5632 5628 5621 5615 5610 5606 5601 5598 5591 5585 5579 5574 5569 5563 5555 5547 5538 5533 5528 5521 5512 5504 5498 5490 5482 5472 5462 5454 5446 5439 5430
5610 5611 5583 5566 5560 5554 5596 5606 5637 5650 5651 5665 5664 5658 5648 5638 5631 5627 5622 5618 5612 5606 5600 5596 5594 5591 5584 5578 5572 5566 5559 5552 5545 5536 5527 5521 5515 5508 5499 5491 5483 5474 5465 5455 5447 5438 5429 5420 5410
5595 5593 5594 5589 5569 5569 5568 5619 5645 5658 5660 5661 5661 5657 5643 5635 5626 5619 5613 5608 5602 5597 5592 5589 5585 5580 5575 5569 5563 5556 5549 5541 5533 5524 5516 5509 5502 5493 5485 5475 5467 5457 5448 5439 5430 5421 5411 5402 5393
5595 5597 5589 5577 5575 5571 5581 5645 5652 5654 5656 5652 5655 5650 5637 5633 5623 5615 5606 5598 5592 5589 5585 5582 5576 5572 5566 5560 5553 5546 5538 5531 5522 5513 5505 5496 5488 5479 5471 5462 5452 5441 5431 5424 5415 5404 5397 5387 5377